Location: Brunsen
(51.8651°N, 9.8610°E)
Time: 15:11:31
(UTC+00:00)

H-2A R/B - Pass Details

Date: 23 May 2024
Orbit: 567 x 637 km, 98.4° (Epoch: 24 June)

Event Time Altitude Azimuth Distance (km) Brightness Sun altitude
Rises 00:30:45 0° 7° (N) 2,955 7.2 -15.7°
Reaches altitude 10° 00:33:12 10° 356° (N) 2,042 5.8 -15.6°
Maximum altitude 00:36:56 27° 299° (WNW) 1,230 3.7 -15.4°
Enters shadow 00:39:50 14° 248° (WSW) 1,753 4.0 -15.3°
